Hourly Data Report for October 06, 2014

All times are specified in Local Standard Time (LST). Add 1 hour to adjust for Daylight Saving Time where and when it is observed.

IQALUIT CLIMATE
NUNAVUT

63°44'50.000" N
68°32'40.000" W
33.50 m
2402592
71321
XFB

Download Data

Hourly Data (October 2014)
Hourly Data Report for October 6, 2014
Temp Definition
°C
Dew Point Temp Definition
°C
Rel Hum Definition
%
Wind Dir Definition
10's deg

Wind Spd Definition
km/h
Visibility Definition
km
Stn Press Definition
kPa
Hmdx Definition


Wind Chill Definition


Weather Definition


TIME
00:00 1.3 0.4 93 15 20   101.27     LegendNANA
01:00 1.4 0.4 93 15 17   101.27     LegendNANA
02:00 1.0 0.3 95 15 16   101.23     LegendNANA
03:00 1.1 0.1 93 14 18   101.20     LegendNANA
04:00 1.1 0.2 93 13 10   101.22     LegendNANA
05:00 1.4 0.2 92 15 22   101.21     LegendNANA
06:00 2.3 -0.2 83 14 17   101.22     LegendNANA
07:00 1.7 -0.5 85 14 14   101.25     LegendNANA
08:00 1.5 0.7 95 13 13   101.25     LegendNANA
09:00 2.6 0.1 84 13 16   101.28     LegendNANA
10:00 1.7 0.2 90 16 7   101.30     LegendNANA
11:00 1.9 0.3 89 15 11   101.31     LegendNANA
12:00 1.7 0.0 89 14 9   101.34     LegendNANA
13:00 1.6 -0.1 89 13 14   101.35     LegendNANA
14:00 1.6 -0.2 88 13 14   101.35     LegendNANA
15:00 1.5 -0.2 88 13 15   101.35     LegendNANA
16:00 1.4 -0.2 90 13 15   101.40     LegendNANA
17:00 1.3 -0.2 90 13 15   101.45     LegendNANA
18:00 1.4 -0.3 89 14 21   101.48     LegendNANA
19:00 1.3 -0.2 90 14 18   101.50     LegendNANA
20:00 1.1 -0.4 90 13 14   101.53     LegendNANA
21:00 1.1 -0.6 89 12 14   101.55     LegendNANA
22:00 0.9 -0.7 89 13 11   101.56     LegendNANA
23:00 0.8 -0.9 88 13 11   101.59     LegendNANA

Notes on Data Quality.

Legend

  • E = Estimated
  • M = Missing
  • NA = Not Available
  • ‡ = Partner data that is not subject to review by the National Climate Archives
Date modified: